Regional Weather Roundup
Issued by NWS Upton, NY

Current Version | Previous Version | Text Only | Print | Product List | Glossary On
Versions: 1 2 3 4 5 6 7 8 9 10 11 12 13 14 15 16 17 18 19 20 21 22 23 24 25 26 27 28 29 30 31 32 33 34 35 36 37 38 39 40 41 42 43 44 45 46 47 48 49 50
000
ASUS41 KOKX 180409
RWROKX

REGIONAL WEATHER ROUNDUP
NATIONAL WEATHER SERVICE NEW YORK NY
1200 AM EDT FRI AUG 18 2017

NOTE: "FAIR" INDICATES FEW OR NO CLOUDS BELOW 12,000 FEET WITH NO
SIGNIFICANT WEATHER AND/OR OBSTRUCTIONS TO VISIBILITY.

NYZ071-072-176-178-NJZ106-104-180500-
NEW YORK CITY METRO AREA

CITY           SKY/WX    TMP DP  RH WIND       PRES   REMARKS
Central Park   CLOUDY    75  71  87 CALM      30.00F
Bronx Bot Gard   N/A     73  68  83 SE9       29.99F
LaGuardia APRT CLOUDY    76  73  91 S9        29.97F
Kennedy INTL   CLOUDY    76  75  97 SE8       29.98F
Breezy Point     N/A     73 N/A N/A S6          N/A
Newark/Liberty CLOUDY    74  72  93 S5        29.96F
Teterboro      CLOUDY    76  71  85 S5        29.96F
$$

NYZ177-179-078>081-180500-
LONG ISLAND NEW YORK

CITY           SKY/WX    TMP DP  RH WIND       PRES   REMARKS
Jones Beach      N/A     73 N/A N/A S6          N/A
Matinecock PT    N/A     70 N/A N/A E5          N/A
Farmingdale    MOCLDY    74  71  91 SE8       29.99F
MacArthur/ISP  MOCLDY    73  72  96 S8        29.99F
Shirley        MOCLDY    73  71  93 S6        30.00F
Mt Sinai Harb    N/A    N/A N/A N/A S9          N/A
Westhampton    CLOUDY    68  65  90 SE3       30.02F
East Hampton   CLOUDY    63  60  91 CALM      30.01S
Montauk          N/A     70  66  87 VRB3      30.02F
$$

NYZ052-065-067-180500-
HUDSON VALLEY

CITY           SKY/WX    TMP DP  RH WIND       PRES   REMARKS
White Plains   CLOUDY    71  67  87 E6        29.98F
Larchmont Harb   N/A     72 N/A N/A NE5         N/A
Croton On Huds   N/A     72 N/A N/A E2          N/A
Newburgh       CLOUDY    73  64  73 VRB5      29.99F
Montgomery     PTCLDY    70  65  84 CALM      29.97S
Poughkeepsie   CLOUDY    71  61  70 SE6       29.96F
Albany         CLOUDY    70  55  59 CALM      29.95F
$$

NJZ001-105-106-008-010-013-015-019>022-104-180500-
NEW JERSEY

CITY           SKY/WX    TMP DP  RH WIND       PRES   REMARKS
Newark/Liberty CLOUDY    74  72  93 S5        29.96F
Teterboro      CLOUDY    76  71  85 S5        29.96F
Caldwell       CLOUDY    74  73  97 CALM      29.98F
Somerville     CLOUDY    73  71  93 CALM      29.95F
Linden         CLOUDY    76  72  87 CALM      29.97F
Perth Amboy      N/A     75 N/A N/A SE5         N/A
Sussex         CLOUDY    69  68  96 CALM      29.96F
Andover          N/A     73  67  81 CALM      29.97F
Trenton        CLOUDY    76  69  79 S6        29.96F
Millville      CLOUDY    76  74  93 CALM      29.97F
Atlantic City  PTCLDY    77  72  84 S8        29.97F
Wrightstown    PTCLDY    74  72  91 S5        29.94F
Toms River     MOCLDY    75  74  96 S5        29.98F
Belmar         CLOUDY    76  74  93 S5        29.98F
$$

PAZ047>061-062-071-180500-
EASTERN PENNSYLVANIA

CITY           SKY/WX    TMP DP  RH WIND       PRES   REMARKS
Philadelphia   PTCLDY    76  71  85 SE7       29.95F
Allentown      CLOUDY    78  69  73 S7        29.95F
Scranton       CLOUDY    76  67  73 CALM      29.93F
$$

CTZ002-004>006-009-010-012-RIZ004-006-007-MAZ004-011-015-180500-
SOUTHERN NEW ENGLAND
 IN CT

CITY           SKY/WX    TMP DP  RH WIND       PRES   REMARKS
Bradley INTL   CLOUDY    69  59  70 S7        29.99F
Hartford       CLOUDY    69  59  70 S3        29.99F
Danbury        PTCLDY    68  63  84 CALM      30.01F
Wtrbury/Oxford PTCLDY    66  62  87 S6        30.02F
Norwalk Harbor   N/A     72 N/A N/A SE3         N/A
Bridgeport     CLOUDY    72  67  84 CALM      29.99F
Meriden        MOCLDY    66  61  84 CALM      30.00F
New Haven      CLEAR     71  66  84 SE6       30.00F
Chester        NOT AVBL
Groton         CLEAR     63  61  93 CALM      30.01S
Wilimantic     CLEAR     64  61  90 CALM      30.02S

 IN RI

CITY           SKY/WX    TMP DP  RH WIND       PRES   REMARKS
Providence     MOCLDY    65  59  81 CALM      30.02S
Block Island   CLEAR     68  64  87 S7        30.02F
Westerly       CLEAR     63  60  90 CALM      30.03S
 IN MA

CITY           SKY/WX    TMP DP  RH WIND       PRES   REMARKS
Boston         CLOUDY    69  56  62 SW9       30.00S
Worcester      PTCLDY    63  56  78 SW7       30.03S
Westfield      PTCLDY    68  60  75 SE3       29.99S
Provincetown   CLEAR     67  62  84 SW7       30.02S
Nantucket      CLEAR     62  60  93 SW7       30.03S
$$

ANZ330-335-338-340-345-350-353-355-180500-
COASTAL MARINE OBSERVATIONS


STATION/POSITION TIME  SKY/WX   TEMP    WIND        PRES    VSBY  WAVE
                                AIR SEA DIR/SP/G                  HT/PER
                 (UTC)          (F)     (DEG/KT/KT) (MB)    (MI)  (FT/S)
NY HARB ENTRANCE 0250            75 76  170/ 10/ 10 1015.1          2/ 7
GREAT SOUTH BAY  0330            74 78  170/  8/ 10   N/A
23 SSW MONTAUK P 0250            71 72              1016.8          2/ 8
15 E BARNEGAT LI 0330               77                N/A           3/ 7
HUDSON CANYON    0350            75 76  190/ 10/ 10 1015.3          3/ 7
KINGS POINT      0342            74 74  180/  5/  8 1014.9
EXECUTION ROCKS  NOT AVBL
WESTERN LI SOUND NOT AVBL
CENTRAL LI SOUND NOT AVBL
EASTERN LI SOUND NOT AVBL
ROBBINS REEF     0336                   150/ 10/ 13 1015.7
$$


>>>>>>>>>>>>>>>>>>>>>>>>>>>> KEY <<<<<<<<<<<<<<<<<<<<<<<<<<<
>                                                          <
>     SKY/WX - Sky Condition/Present Weather               <
>     TMP    - Temperature in Fahrenheit                   <
>     DP     - Dew Point in Fahrenheit                     <
>     RH     - Relative Humidity in Percent                <
>     WIND   - Direction (from) and Speed in MPH           <
>     PRES   - Mean Sea Level Pressure (inches of Hg)      <
>     WCI    - Wind Chill Index                            <
>     VSB    - VISIBILITY IN MILES                         <
>     HX     - HEAT INDEX                                  <
>     TC     - TEMPERATURE IN CELSIUS                      <
>     VRB    - VARIABLE WIND DIRECTION                     <
>                                                          <
>>>>>>>>>>>>>>>>>>>>>>>>>>>> KEY <<<<<<<<<<<<<<<<<<<<<<<<<<<



USA.gov is the U.S. government's official web portal to all federal, state and local government web resources and services.